Location: Copeville
(33.0796°N, 96.4155°W)
Time: 12:46:20
(UTC+00:00)

Cosmos 1328 Rocket - Pass Details

Date: 09 July 2022
Orbit: 600 x 627 km, 82.5° (Epoch: 12 August)

Event Time Altitude Azimuth Distance (km) Brightness Sun altitude
Rises 08:20:31 0° 349° (N) 2,889 7.7 -28.7°
Reaches altitude 10° 08:22:46 10° 347° (NNW) 1,975 6.7 -28.5°
Enters shadow 08:25:16 33° 336° (NNW) 1,037 4.9 -28.2°
